Location: Podia
(1.5569°N, 32.3469°E)
Time: 20:20:48
(UTC+00:00)

S-56A Canister/Altair - Pass Details

Date: 02 October 2020
Orbit: 632 x 2500 km, 38.9° (Epoch: 20 October)

Event Time Altitude Azimuth Distance (km) Brightness Sun altitude
Rises 17:33:34 0° 327° (NNW) 5,489 12.3 -28.5°
Reaches altitude 10° 17:38:27 10° 339° (NNW) 4,161 11.4 -29.7°
Enters shadow 17:45:12 24° 16° (NNE) 2,693 10.1 -31.4°
